Change the Weather History Date:

Sunday, August 18, 2013

  Actual Average Record
Temperature  
Mean Temperature 65 °F -  
Max Temperature 77 °F 78 °F 93 °F (2003)
Min Temperature 53 °F 60 °F 46 °F (2002)
Growing Degree Days 15 (Base 50)    
Moisture  
Dew Point 56 °F    
Average Humidity 73    
Maximum Humidity 94    
Minimum Humidity 47    
Precipitation  
Precipitation 0.00 in - - ()
Sea Level Pressure  
Sea Level Pressure 30.11 in    
Wind  
Wind Speed 8 mph (South)    
Max Wind Speed 18 mph    
Max Gust Speed 24 mph    
Visibility 10 miles    
Events      
Averages and records for this station are not official NWS values.
T = Trace of Precipitation, MM = Missing Value Source: NWS Daily Summary

Daily Weather History Graph

Daily Weather History Graph

Search for Another Location

Airport or City:

Trip Planner

Search our weather history database for the weather conditions in past years. The results will help you decide how hot, cold, wet, or windy it might be!

Date:

Astronomy

Aug. 18, 2013 Rise Set
Actual Time 6:31 AM CDT 8:17 PM CDT
Civil Twilight 6:01 AM CDT 8:47 PM CDT
Nautical Twilight 5:24 AM CDT 9:24 PM CDT
Astronomical Twilight 4:44 AM CDT 10:03 PM CDT
Moon 6:25 PM CDT (8/18) 3:39 AM CDT (8/18)
Length of Visible Light 14h 46m
Length of Day
13h 46m
Waxing Gibbous, 92% of the Moon is Illuminated
Aug 18
Waxing Gibbous
Aug 20
Full
Aug 28
Last Quarter
Sep 5
New
Sep 12
First Quarter

Hourly Weather History & Observations

Time (CDT) Temp. Dew Point Humidity Pressure Visibility Wind Dir Wind Speed Gust Speed Precip Events Conditions
12:15 AM 57.2 °F 53.6 °F 88% 30.14 in 10.0 mi SSE 5.8 mph - N/A   Clear
12:35 AM 59.0 °F 53.6 °F 82% 30.14 in 10.0 mi South 6.9 mph - N/A   Clear
12:55 AM 59.0 °F 55.4 °F 88% 30.15 in 10.0 mi South 6.9 mph - N/A   Clear
1:15 AM 57.2 °F 53.6 °F 88% 30.15 in 10.0 mi South 8.1 mph - N/A   Clear
1:35 AM 57.2 °F 55.4 °F 94% 30.15 in 10.0 mi SSE 6.9 mph - N/A   Clear
1:55 AM 57.2 °F 55.4 °F 94% 30.15 in 10.0 mi South 6.9 mph - N/A   Clear
2:15 AM 57.2 °F 53.6 °F 88% 30.14 in 10.0 mi SSW 5.8 mph - N/A   Clear
2:35 AM 57.2 °F 53.6 °F 88% 30.14 in 10.0 mi South 6.9 mph - N/A   Clear
2:55 AM 57.2 °F 53.6 °F 88% 30.14 in 10.0 mi SSW 4.6 mph - N/A   Clear
3:15 AM 57.2 °F 53.6 °F 88% 30.14 in 10.0 mi South 5.8 mph - N/A   Clear
3:35 AM 55.4 °F 51.8 °F 88% 30.14 in 10.0 mi South 4.6 mph - N/A   Clear
3:55 AM 57.2 °F 53.6 °F 88% 30.14 in 10.0 mi SW 5.8 mph - N/A   Clear
4:15 AM 55.4 °F 51.8 °F 88% 30.13 in 10.0 mi SSW 3.5 mph - N/A   Clear
4:35 AM 55.4 °F 51.8 °F 88% 30.14 in 10.0 mi SSW 4.6 mph - N/A   Clear
4:55 AM 53.6 °F 51.8 °F 94% 30.14 in 10.0 mi SSE 3.5 mph - N/A   Clear
5:15 AM 53.6 °F 51.8 °F 94% 30.14 in 10.0 mi SSE 4.6 mph - N/A   Clear
5:35 AM 53.6 °F 51.8 °F 94% 30.14 in 10.0 mi SSE 6.9 mph - N/A   Clear
5:55 AM 53.6 °F 51.8 °F 94% 30.15 in 9.0 mi SSE 5.8 mph - N/A   Clear
6:15 AM 53.6 °F 51.8 °F 94% 30.14 in 10.0 mi South 5.8 mph - N/A   Clear
6:35 AM 53.6 °F 51.8 °F 94% 30.15 in 9.0 mi SSE 3.5 mph - N/A   Clear
6:55 AM 53.6 °F 51.8 °F 94% 30.15 in 9.0 mi South 4.6 mph - N/A   Clear
7:15 AM 53.6 °F 51.8 °F 94% 30.16 in 9.0 mi SSE 4.6 mph - N/A   Clear
7:35 AM 57.2 °F 53.6 °F 88% 30.16 in 9.0 mi South 6.9 mph - N/A   Clear
7:55 AM 59.0 °F 55.4 °F 88% 30.16 in 9.0 mi South 3.5 mph - N/A   Clear
8:15 AM 60.8 °F 57.2 °F 88% 30.16 in 9.0 mi South 4.6 mph - N/A   Clear
8:35 AM 62.6 °F 57.2 °F 82% 30.16 in 10.0 mi South 4.6 mph - N/A   Clear
8:55 AM 64.4 °F 59.0 °F 83% 30.16 in 8.0 mi South 5.8 mph - N/A   Clear
9:15 AM 66.2 °F 59.0 °F 78% 30.15 in 10.0 mi South 5.8 mph - N/A   Clear
9:35 AM 68.0 °F 60.8 °F 78% 30.15 in 10.0 mi SSW 5.8 mph - N/A   Clear
9:55 AM 71.6 °F 59.0 °F 64% 30.15 in 10.0 mi North - - N/A   Clear
10:35 AM 73.4 °F 57.2 °F 57% 30.15 in 10.0 mi South 11.5 mph - N/A   Clear
10:55 AM 73.4 °F 57.2 °F 57% 30.15 in 10.0 mi SSW 12.7 mph 19.6 mph N/A   Clear
11:15 AM 75.2 °F 57.2 °F 53% 30.15 in 10.0 mi South 11.5 mph 18.4 mph N/A   Clear
11:35 AM 75.2 °F 55.4 °F 50% 30.14 in 10.0 mi South 17.3 mph - N/A   Clear
11:55 AM 75.2 °F 55.4 °F 50% 30.14 in 10.0 mi SSW 18.4 mph 24.2 mph N/A   Clear
12:15 PM 75.2 °F 55.4 °F 50% 30.13 in 10.0 mi South 15.0 mph - N/A   Clear
12:35 PM 75.2 °F 55.4 °F 50% 30.13 in 10.0 mi South 10.4 mph 18.4 mph N/A   Clear
12:55 PM 75.2 °F 55.4 °F 50% 30.12 in 10.0 mi SSW 11.5 mph 19.6 mph N/A   Clear
1:15 PM 77.0 °F 55.4 °F 47% 30.12 in 10.0 mi SSW 13.8 mph 20.7 mph N/A   Clear
1:35 PM 77.0 °F 55.4 °F 47% 30.11 in 10.0 mi South 12.7 mph 20.7 mph N/A   Clear
1:55 PM 77.0 °F 55.4 °F 47% 30.10 in 10.0 mi South 16.1 mph - N/A   Clear
2:15 PM 77.0 °F 55.4 °F 47% 30.10 in 10.0 mi South 11.5 mph 20.7 mph N/A   Clear
2:35 PM 77.0 °F 55.4 °F 47% 30.10 in 10.0 mi South 13.8 mph 19.6 mph N/A   Clear
2:55 PM 77.0 °F 55.4 °F 47% 30.10 in 10.0 mi SSW 16.1 mph - N/A   Clear
3:15 PM 77.0 °F 57.2 °F 50% 30.09 in 10.0 mi South 11.5 mph 20.7 mph N/A   Clear
3:35 PM 77.0 °F 57.2 °F 50% 30.09 in 10.0 mi South 13.8 mph 20.7 mph N/A   Clear
3:55 PM 77.0 °F 57.2 °F 50% 30.08 in 10.0 mi SSW 15.0 mph 23.0 mph N/A   Clear
4:15 PM 77.0 °F 57.2 °F 50% 30.09 in 10.0 mi South 13.8 mph 19.6 mph N/A   Clear
4:35 PM 77.0 °F 57.2 °F 50% 30.08 in 10.0 mi SW 12.7 mph - N/A   Clear
4:55 PM 77.0 °F 59.0 °F 54% 30.07 in 10.0 mi South 13.8 mph - N/A   Clear
5:15 PM 77.0 °F 59.0 °F 54% 30.07 in 10.0 mi South 11.5 mph - N/A   Clear
5:35 PM 77.0 °F 57.2 °F 50% 30.07 in 10.0 mi SSW 11.5 mph 17.3 mph N/A   Clear
5:55 PM 77.0 °F 57.2 °F 50% 30.07 in 10.0 mi South 11.5 mph 18.4 mph N/A   Clear
6:15 PM 77.0 °F 57.2 °F 50% 30.07 in 10.0 mi SSW 9.2 mph 15.0 mph N/A   Clear
6:35 PM 75.2 °F 57.2 °F 53% 30.07 in 10.0 mi SSW 12.7 mph - N/A   Clear
6:55 PM 75.2 °F 57.2 °F 53% 30.06 in 10.0 mi SSW 9.2 mph 15.0 mph N/A   Clear
7:15 PM 73.4 °F 59.0 °F 61% 30.07 in 10.0 mi SSW 6.9 mph - N/A   Clear
7:35 PM 69.8 °F 59.0 °F 68% 30.07 in 10.0 mi SSW 5.8 mph - N/A   Clear
7:55 PM 68.0 °F 59.0 °F 73% 30.07 in 10.0 mi South 5.8 mph - N/A   Clear
8:15 PM 66.2 °F 59.0 °F 78% 30.07 in 10.0 mi South 8.1 mph - N/A   Clear
8:35 PM 64.4 °F 59.0 °F 83% 30.07 in 10.0 mi South 8.1 mph - N/A   Clear
8:55 PM 62.6 °F 59.0 °F 88% 30.07 in 10.0 mi South 6.9 mph - N/A   Clear
9:15 PM 62.6 °F 59.0 °F 88% 30.07 in 10.0 mi SSW 6.9 mph - N/A   Clear
9:35 PM 62.6 °F 59.0 °F 88% 30.07 in 10.0 mi South 6.9 mph - N/A   Clear
9:55 PM 62.6 °F 59.0 °F 88% 30.07 in 10.0 mi South 6.9 mph - N/A   Clear
10:15 PM 62.6 °F 59.0 °F 88% 30.07 in 10.0 mi SSW 6.9 mph - N/A   Clear
10:35 PM 62.6 °F 59.0 °F 88% 30.07 in 10.0 mi South 8.1 mph - N/A   Clear
10:55 PM 62.6 °F 59.0 °F 88% 30.06 in 10.0 mi South 9.2 mph - N/A   Clear
11:15 PM 60.8 °F 59.0 °F 94% 30.07 in 9.0 mi South 6.9 mph - N/A   Clear
11:35 PM 60.8 °F 59.0 °F 94% 30.07 in 10.0 mi South 6.9 mph - N/A   Clear
11:55 PM 62.6 °F 59.0 °F 88% 30.07 in 10.0 mi South 8.1 mph - N/A   Clear